Weather reports worldwide

Advertisment
Yeovilton, United Kingdom (3853): temperature & dewpoint: 27.06.2020 20:00:00 - 03.07.2020 20:00:00 (BST)Yeovilton, United Kingdom (3853): temperature -20cm & temperature -100cm: 27.06.2020 20:00:00 - 03.07.2020 20:00:00 (BST)Yeovilton, United Kingdom (3853): wind speed & gusts: 27.06.2020 20:00:00 - 03.07.2020 20:00:00 (BST)Yeovilton, United Kingdom (3853): wind direction: 27.06.2020 20:00:00 - 03.07.2020 20:00:00 (BST)Yeovilton, United Kingdom (3853): reduced air pressure: 27.06.2020 20:00:00 - 03.07.2020 20:00:00 (BST)Yeovilton, United Kingdom (3853): visibility: 27.06.2020 20:00:00 - 03.07.2020 20:00:00 (BST)Yeovilton, United Kingdom (3853): sunshine duration: 27.06.2020 20:00:00 - 03.07.2020 20:00:00 (BST)Yeovilton, United Kingdom (3853): precipitation: 27.06.2020 20:00:00 - 03.07.2020 20:00:00 (BST)
Date & Time tt [°C] td [°C] tt -20cm [°C] tt -100cm [°C] ff [km/h] ff [kn] fx [km/h] fx [kn] dd ppp [hPa] vv [km] sd [min] rr [mm]
03.07.2020 20:00:00 - - - - - - - - - - - - -
03.07.2020 19:00:00 14,5 13,2 - - 24 13 - - SSW 1015,4 10 0 1,0
03.07.2020 18:00:00 14,8 12,8 - - 24 13 46 25 SW 1015,8 18 0 1,4
03.07.2020 17:00:00 16,2 11,9 - - 28 15 - - SSW 1015,9 17 0 0,0
03.07.2020 16:00:00 17,5 11,9 - - 24 13 - - SW 1016,3 10 0 0,0
03.07.2020 15:00:00 17,5 11,6 - - 34 18 48 26 SSW 1016,3 40 0 0,0
03.07.2020 14:00:00 18,2 11,6 - - 34 18 46 25 SSW 1016,2 10 18 0,0
03.07.2020 13:00:00 18,7 11,3 - - 28 15 - - SSW 1016,7 30 48 0,0
03.07.2020 12:00:00 17,4 10,7 - - 24 13 - - SSW 1017,1 45 - 0,0
03.07.2020 11:00:00 18,0 11,7 - - 22 12 - - SW 1017,1 35 36 0,0
03.07.2020 10:00:00 15,8 10,6 17,2 16,5 21 11 - - SW 1017,1 35 6 0,0
03.07.2020 09:00:00 14,9 10,7 - - 21 11 - - SW 1017,3 30 18 0,0
03.07.2020 08:00:00 13,9 10,8 - - 13 7 - - SW 1017,5 45 0 0,0
03.07.2020 07:00:00 12,3 11,0 - - 9 5 - - SSW 1017,5 10 0 0,0
03.07.2020 06:00:00 10,7 9,6 - - 11 6 - - SSW 1017,6 29 0 0,0
03.07.2020 05:00:00 11,5 10,1 - - 13 7 - - WSW 1017,5 30 0 0,0
03.07.2020 04:00:00 10,8 9,7 - - 9 5 - - SW 1017,6 35 0 0,0
03.07.2020 03:00:00 11,0 9,8 - - 9 5 - - SW 1017,6 10 0 0,0
03.07.2020 02:00:00 11,3 9,7 - - 8 4 - - SW 1017,5 10 0 0,0
03.07.2020 01:00:00 10,8 9,5 - - 8 4 - - SW 1017,5 10 - 0,0
03.07.2020 00:00:00 11,6 9,8 - - 9 5 - - W 1017,6 10 0 0,0
02.07.2020 23:00:00 12,5 10,3 - - 15 8 - - W 1017,3 10 0 0,0
02.07.2020 22:00:00 14,0 9,8 - - 15 8 - - W 1016,9 10 6 0,0
02.07.2020 21:00:00 16,7 9,0 - - 8 4 - - NNW 1015,9 10 30 0,0
02.07.2020 20:00:00 17,8 10,4 - - 18 10 - - NW 1015,5 10 24 0,0
02.07.2020 19:00:00 18,0 11,1 - - 22 12 - - NW 1014,8 20 36 0,0
02.07.2020 18:00:00 18,7 13,2 - - 18 10 - - W 1014,3 20 36 0,0
02.07.2020 17:00:00 17,3 13,5 - - 11 6 - - W 1013,9 10 0 0,2
02.07.2020 16:00:00 16,7 13,3 - - 13 7 - - W 1013,9 10 0 0,2
02.07.2020 15:00:00 16,9 12,7 - - 15 8 - - W 1013,5 10 6 0,0
02.07.2020 14:00:00 17,0 12,2 - - 15 8 - - W 1013,1 10 6 0,0
02.07.2020 13:00:00 17,1 13,2 - - 16 9 - - WNW 1012,7 10 0 0,0
02.07.2020 12:00:00 17,1 11,9 - - 24 13 - - W 1012,2 20 6 0,0
02.07.2020 11:00:00 17,0 11,9 - - 24 13 - - W 1011,7 20 6 0,0
02.07.2020 10:00:00 16,7 11,4 17,4 16,7 21 11 - - W 1011,3 10 24 0,0
02.07.2020 09:00:00 15,7 11,7 - - 22 12 - - WSW 1010,9 15 48 0,0
02.07.2020 08:00:00 14,5 11,8 - - 13 7 - - SW 1010,4 10 6 0,0
02.07.2020 07:00:00 14,0 11,7 - - 11 6 - - SW 1010,1 10 0 0,0
02.07.2020 06:00:00 13,4 11,3 - - 15 8 - - SW 1009,6 15 0 0,0
02.07.2020 05:00:00 13,0 11,1 - - 15 8 - - SSW 1009,4 15 0 0,0
02.07.2020 04:00:00 12,6 11,0 - - 11 6 - - SSW 1009,5 50 0 0,0
02.07.2020 03:00:00 12,1 10,6 - - 15 8 - - SSW 1009,4 50 0 0,0
02.07.2020 02:00:00 12,4 10,4 - - 9 5 - - SW 1009,4 50 0 0,0
02.07.2020 01:00:00 11,8 10,0 - - 9 5 - - SW 1009,3 10 - 0,0
02.07.2020 00:00:00 11,2 9,3 - - 9 5 - - SSW 1009,4 10 0 0,0
01.07.2020 23:00:00 12,7 10,3 - - 4 2 - - S 1009,3 20 0 0,0
01.07.2020 22:00:00 13,9 11,1 - - 5 3 - - W 1009,0 20 0 0,0
01.07.2020 21:00:00 15,8 12,8 - - 9 5 - - NW 1008,3 10 36 0,0
01.07.2020 20:00:00 16,2 12,5 - - 11 6 - - NW 1007,9 10 6 0,0
01.07.2020 19:00:00 16,3 13,5 - - 9 5 - - NNW 1007,6 10 0 0,0
01.07.2020 18:00:00 15,4 14,4 - - 8 4 - - N 1007,5 5 0 1,0
01.07.2020 17:00:00 15,4 14,2 - - 5 3 - - NW 1007,5 6 0 0,4
01.07.2020 16:00:00 16,0 14,5 - - 11 6 - - W 1007,1 5 0 0,8
01.07.2020 15:00:00 17,7 14,3 - - 13 7 - - W 1006,5 10 0 0,0
01.07.2020 14:00:00 17,8 14,7 - - 16 9 - - SSW 1006,2 12 0 0,2
01.07.2020 13:00:00 17,1 14,1 - - 22 12 - - SSW 1005,9 10 0 0,0
01.07.2020 12:00:00 18,2 13,8 - - 18 10 - - SW 1005,6 10 6 0,0
01.07.2020 11:00:00 18,1 13,8 - - 18 10 - - W 1005,4 10 0 0,0
01.07.2020 10:00:00 17,2 13,3 17,5 16,7 16 9 - - SW 1005,5 15 0 0,0
01.07.2020 09:00:00 16,1 13,2 - - 11 6 - - SW 1005,4 15 0 0,0
01.07.2020 08:00:00 15,3 12,6 - - 11 6 - - SW 1005,1 10 0 0,0
01.07.2020 07:00:00 14,6 12,5 - - 9 5 - - SSW 1004,8 15 0 0,0
01.07.2020 06:00:00 13,3 11,8 - - 11 6 - - SSW 1004,5 35 0 0,0
01.07.2020 05:00:00 14,0 11,6 - - 8 4 - - WSW 1004,7 50 0 0,0
01.07.2020 04:00:00 14,4 12,2 - - 9 5 - - SW 1004,6 45 0 0,0
01.07.2020 03:00:00 14,3 12,3 - - 13 7 - - SSW 1004,6 10 0 0,0
01.07.2020 02:00:00 14,8 12,5 - - 13 7 - - SSW 1005,0 10 0 0,0
01.07.2020 01:00:00 14,6 12,8 - - 9 5 - - S 1005,4 20 - 0,0
01.07.2020 00:00:00 14,9 13,3 - - 9 5 - - WSW 1005,6 15 0 0,0
30.06.2020 23:00:00 14,8 13,5 - - 15 8 - - SSW 1005,4 10 0 0,0
30.06.2020 22:00:00 15,9 14,1 - - 15 8 - - SSW 1005,3 10 0 0,0
30.06.2020 21:00:00 16,3 14,5 - - 16 9 - - SSW 1005,2 10 0 0,0
30.06.2020 20:00:00 17,2 15,3 - - 16 9 - - S 1005,1 15 0 0,0
30.06.2020 19:00:00 17,9 16,0 - - 18 10 - - S 1005,0 10 0 0,0
30.06.2020 18:00:00 17,6 15,9 - - 18 10 - - S 1005,3 4,0 0 0,2
30.06.2020 17:00:00 18,6 16,0 - - 22 12 - - SSW 1005,4 8 0 0,0
30.06.2020 16:00:00 18,0 15,9 - - 18 10 - - SSW 1005,8 10 0 0,0
30.06.2020 15:00:00 17,7 15,6 - - 24 13 - - S 1006,1 10 0 0,0
30.06.2020 14:00:00 16,4 15,0 - - 21 11 - - SSW 1006,4 7 0 0,0
30.06.2020 13:00:00 15,9 14,1 - - 18 10 - - S 1006,9 10 0 0,2
30.06.2020 12:00:00 15,3 14,2 - - 13 7 - - S 1007,2 2,4 0 0,0
30.06.2020 11:00:00 14,8 12,8 - - 9 5 - - SSW 1007,5 10 0 0,4
30.06.2020 10:00:00 13,8 12,3 17,5 16,9 5 3 - - SW 1007,6 7 0 0,8
30.06.2020 09:00:00 13,6 12,0 - - 11 6 - - SW 1008,0 8 0 1,0
30.06.2020 08:00:00 14,1 11,9 - - 8 4 - - SSW 1007,8 10 0 0,2
30.06.2020 07:00:00 13,5 11,4 - - 9 5 - - SSW 1008,4 8 0 0,0
30.06.2020 06:00:00 13,0 11,0 - - 9 5 - - SSW 1008,3 50 0 0,0
30.06.2020 05:00:00 12,6 10,4 - - 8 4 - - SSW 1008,6 50 0 0,0
30.06.2020 04:00:00 12,6 10,5 - - 8 4 - - SSW 1009,0 50 0 0,0
30.06.2020 03:00:00 11,9 9,3 - - 4 2 - - SW 1009,5 45 0 0,0
30.06.2020 02:00:00 11,9 8,6 - - 5 3 - - SSW 1010,0 45 0 0,0
30.06.2020 01:00:00 12,0 8,4 - - 9 5 - - S 1010,6 10 - 0,0
30.06.2020 00:00:00 12,8 8,6 - - 11 6 - - SW 1010,9 10 0 0,0
29.06.2020 23:00:00 13,7 8,8 - - 11 6 - - SW 1011,3 10 0 0,0
29.06.2020 22:00:00 14,6 8,4 - - 11 6 - - WSW 1011,4 10 0 0,0
29.06.2020 21:00:00 15,2 7,6 - - 21 11 - - WSW 1011,0 10 0 0,0
29.06.2020 20:00:00 15,7 8,2 - - 21 11 - - WSW 1011,1 10 0 0,0
29.06.2020 19:00:00 16,1 8,2 - - 24 13 - - W 1011,2 10 0 0,0
29.06.2020 18:00:00 16,4 7,7 - - 26 14 - - W 1011,4 10 0 0,0
29.06.2020 17:00:00 16,6 7,3 - - 29 16 46 25 WSW 1011,4 10 0 0,0
29.06.2020 16:00:00 16,3 9,7 - - 28 15 50 27 W 1011,7 10 0 0,0
29.06.2020 15:00:00 16,7 8,5 - - 28 15 - - W 1011,7 10 0 0,0
29.06.2020 14:00:00 16,6 8,5 - - 31 17 - - W 1011,8 10 0 0,0
29.06.2020 13:00:00 16,4 9,4 - - 31 17 46 25 W 1012,0 10 6 0,0
29.06.2020 12:00:00 15,2 8,1 - - 26 14 52 28 W 1012,0 10 0 0,0
29.06.2020 11:00:00 14,4 8,6 - - 31 17 55 30 W 1012,0 10 0 0,0
29.06.2020 10:00:00 15,6 6,7 18,0 16,9 35 19 54 29 W 1011,8 10 24 0,0
29.06.2020 09:00:00 14,1 8,0 - - 24 13 - - WSW 1011,8 10 0 0,0
29.06.2020 08:00:00 13,8 8,8 - - 22 12 - - WSW 1011,3 10 0 0,0
29.06.2020 07:00:00 12,8 8,7 - - 13 7 - - SW 1011,1 20 0 0,0
29.06.2020 06:00:00 11,8 8,8 - - 13 7 - - SSW 1010,9 25 0 0,0
29.06.2020 05:00:00 12,1 8,5 - - 11 6 - - SW 1011,0 30 0 0,0
29.06.2020 04:00:00 12,4 8,7 - - 16 9 - - SW 1010,8 35 0 0,0
29.06.2020 03:00:00 12,8 8,7 - - 16 9 - - WSW 1011,0 29 0 0,0
29.06.2020 02:00:00 13,1 8,8 - - 18 10 - - SW 1011,4 29 0 0,0
29.06.2020 01:00:00 12,9 9,0 - - 16 9 - - SW 1011,4 29 - 0,0
29.06.2020 00:00:00 12,4 9,2 - - 16 9 - - SW 1011,6 30 0 0,0
28.06.2020 23:00:00 13,2 9,1 - - 21 11 - - WSW 1011,8 50 0 0,0
28.06.2020 22:00:00 13,7 8,8 - - 16 9 - - WSW 1011,8 45 0 0,0
28.06.2020 21:00:00 14,8 7,9 - - 22 12 - - WSW 1011,6 45 0 0,0
28.06.2020 20:00:00 15,3 8,0 - - 22 12 - - WSW 1011,7 35 6 0,0
28.06.2020 19:00:00 15,5 8,4 - - 26 14 55 30 WSW 1011,5 10 6 0,0
28.06.2020 18:00:00 16,9 9,4 - - 28 15 - - WSW 1011,1 10 0 0,0
28.06.2020 17:00:00 17,3 9,4 - - 31 17 54 29 W 1011,2 35 18 0,0
28.06.2020 16:00:00 18,3 9,7 - - 24 13 46 25 WSW 1011,0 50 18 0,0
28.06.2020 15:00:00 17,7 10,9 - - 21 11 46 25 WSW 1011,2 35 18 0,0
28.06.2020 14:00:00 18,5 10,5 - - 29 16 50 27 SW 1010,9 10 36 0,0
28.06.2020 13:00:00 17,0 9,6 - - 24 13 50 27 SW 1011,0 35 12 0,0
28.06.2020 12:00:00 15,9 9,6 - - 26 14 - - SW 1011,0 29 12 0,0
28.06.2020 11:00:00 16,3 9,5 - - 24 13 - - SW 1011,1 10 42 0,0
28.06.2020 10:00:00 15,2 9,3 18,4 16,9 22 12 - - WSW 1011,1 10 18 0,0
28.06.2020 09:00:00 14,4 9,7 - - 21 11 - - SW 1010,7 15 30 0,0
28.06.2020 08:00:00 14,2 9,9 - - 22 12 - - SW 1010,2 40 60 0,0
28.06.2020 07:00:00 13,0 9,9 - - 16 9 - - SW 1009,5 10 54 0,0
28.06.2020 06:00:00 11,8 9,3 - - 11 6 - - SW 1009,1 45 6 0,0
28.06.2020 05:00:00 11,8 9,3 - - 15 8 - - SW 1008,6 10 0 0,0
28.06.2020 04:00:00 11,8 9,3 - - 15 8 - - SW 1008,3 45 0 0,0
28.06.2020 03:00:00 11,6 9,2 - - 18 10 - - SW 1008,0 24 0 0,0
28.06.2020 02:00:00 11,0 9,1 - - 21 11 - - SSW 1008,0 45 0 0,0
28.06.2020 01:00:00 12,0 9,4 - - 16 9 - - SW 1007,6 45 - 0,0
28.06.2020 00:00:00 12,7 10,2 - - 16 9 - - WSW 1007,2 40 0 0,0
27.06.2020 23:00:00 12,9 11,2 - - 11 6 - - SW 1006,6 10 0 0,2
27.06.2020 22:00:00 13,7 11,2 - - 21 11 - - SW 1006,4 29 0 0,2
27.06.2020 21:00:00 14,2 12,4 - - 24 13 - - SSW 1005,7 10 6 0,0
27.06.2020 20:00:00 15,9 11,0 - - 15 8 - - WSW 1005,5 45 6 0,0

tt = temperature
td = dewpoint
tt -20cm = temperature -20cm
tt -100cm = temperature -100cm
ff = wind speed
fx = gusts
dd = wind direction
ppp = reduced air pressure
vv = visibility
sd = sunshine duration
rr = precipitation

Next stations